<?xml version="1.0" encoding="UTF-8" standalone="no" ?>
<gpx xmlns="http://www.topografix.com/GPX/1/1" xmlns:xsi="http://www.w3.org/2001/XMLSchema-instance" xsi:schemaLocation="http://www.topografix.com/GPX/1/1 http://www.topografix.com/GPX/1/1/gpx.xsd" version="1.1" creator="VisuGPX - https://www.visugpx.com">
  <metadata>
    <name>aubiac</name>
    <desc><![CDATA[randonnée que je veux faire]]></desc>
  </metadata>
  <trk>
    <name><![CDATA[Aubiac]]></name>
    <trkseg>
      <trkpt lat="44.14223" lon="0.56037">
        <ele>102</ele>
        <time>2007-04-12T10:52:21Z</time>
      </trkpt>
      <trkpt lat="44.14208" lon="0.56109">
        <ele>102</ele>
        <time>2007-04-12T10:52:21Z</time>
      </trkpt>
      <trkpt lat="44.14194" lon="0.56165">
        <ele>101</ele>
        <time>2007-04-12T10:52:21Z</time>
      </trkpt>
      <trkpt lat="44.14157" lon="0.56169">
        <ele>105</ele>
        <time>2007-04-12T10:52:21Z</time>
      </trkpt>
      <trkpt lat="44.14155" lon="0.56202">
        <ele>104</ele>
        <time>2007-04-12T10:52:21Z</time>
      </trkpt>
      <trkpt lat="44.14152" lon="0.56239">
        <ele>103</ele>
        <time>2007-04-12T10:52:21Z</time>
      </trkpt>
      <trkpt lat="44.14134" lon="0.56241">
        <ele>104</ele>
        <time>2007-04-12T10:52:21Z</time>
      </trkpt>
      <trkpt lat="44.14135" lon="0.56299">
        <ele>102</ele>
        <time>2007-04-12T10:52:21Z</time>
      </trkpt>
      <trkpt lat="44.14147" lon="0.56357">
        <ele>100</ele>
        <time>2007-04-12T10:52:21Z</time>
      </trkpt>
      <trkpt lat="44.14098" lon="0.56447">
        <ele>101</ele>
        <time>2007-04-12T10:52:21Z</time>
      </trkpt>
      <trkpt lat="44.14076" lon="0.5649">
        <ele>102</ele>
        <time>2007-04-12T10:52:21Z</time>
      </trkpt>
      <trkpt lat="44.14074" lon="0.56507">
        <ele>103</ele>
        <time>2007-04-12T10:52:21Z</time>
      </trkpt>
      <trkpt lat="44.14081" lon="0.56538">
        <ele>105</ele>
        <time>2007-04-12T10:52:21Z</time>
      </trkpt>
      <trkpt lat="44.1408" lon="0.5656">
        <ele>107</ele>
        <time>2007-04-12T10:52:21Z</time>
      </trkpt>
      <trkpt lat="44.14074" lon="0.56579">
        <ele>108</ele>
        <time>2007-04-12T10:52:21Z</time>
      </trkpt>
      <trkpt lat="44.14061" lon="0.56593">
        <ele>109</ele>
        <time>2007-04-12T10:52:21Z</time>
      </trkpt>
      <trkpt lat="44.14034" lon="0.56619">
        <ele>109</ele>
        <time>2007-04-12T10:52:21Z</time>
      </trkpt>
      <trkpt lat="44.14063" lon="0.56724">
        <ele>122</ele>
        <time>2007-04-12T10:52:21Z</time>
      </trkpt>
      <trkpt lat="44.14099" lon="0.56878">
        <ele>137</ele>
        <time>2007-04-12T10:52:21Z</time>
      </trkpt>
      <trkpt lat="44.1413" lon="0.56989">
        <ele>154</ele>
        <time>2007-04-12T10:52:21Z</time>
      </trkpt>
      <trkpt lat="44.14138" lon="0.57037">
        <ele>159</ele>
        <time>2007-04-12T10:52:21Z</time>
      </trkpt>
      <trkpt lat="44.14143" lon="0.57079">
        <ele>160</ele>
        <time>2007-04-12T10:52:21Z</time>
      </trkpt>
      <trkpt lat="44.14145" lon="0.57106">
        <ele>158</ele>
        <time>2007-04-12T10:52:21Z</time>
      </trkpt>
      <trkpt lat="44.1402" lon="0.57235">
        <ele>162</ele>
        <time>2007-04-12T10:52:21Z</time>
      </trkpt>
      <trkpt lat="44.13994" lon="0.57262">
        <ele>165</ele>
        <time>2007-04-12T10:52:21Z</time>
      </trkpt>
      <trkpt lat="44.1397" lon="0.57294">
        <ele>167</ele>
        <time>2007-04-12T10:52:21Z</time>
      </trkpt>
      <trkpt lat="44.13948" lon="0.57318">
        <ele>169</ele>
        <time>2007-04-12T10:52:21Z</time>
      </trkpt>
      <trkpt lat="44.13919" lon="0.57336">
        <ele>170</ele>
        <time>2007-04-12T10:52:21Z</time>
      </trkpt>
      <trkpt lat="44.13877" lon="0.5735">
        <ele>171</ele>
        <time>2007-04-12T10:52:21Z</time>
      </trkpt>
      <trkpt lat="44.1377" lon="0.574">
        <ele>169</ele>
        <time>2007-04-12T10:52:21Z</time>
      </trkpt>
      <trkpt lat="44.13708" lon="0.57436">
        <ele>167</ele>
        <time>2007-04-12T10:52:21Z</time>
      </trkpt>
      <trkpt lat="44.13648" lon="0.57477">
        <ele>166</ele>
        <time>2007-04-12T10:52:21Z</time>
      </trkpt>
      <trkpt lat="44.13591" lon="0.5752">
        <ele>165</ele>
        <time>2007-04-12T10:52:21Z</time>
      </trkpt>
      <trkpt lat="44.13556" lon="0.57554">
        <ele>166</ele>
        <time>2007-04-12T10:52:21Z</time>
      </trkpt>
      <trkpt lat="44.13529" lon="0.57576">
        <ele>167</ele>
        <time>2007-04-12T10:52:21Z</time>
      </trkpt>
      <trkpt lat="44.13509" lon="0.57586">
        <ele>168</ele>
        <time>2007-04-12T10:52:21Z</time>
      </trkpt>
      <trkpt lat="44.13489" lon="0.57588">
        <ele>169</ele>
        <time>2007-04-12T10:52:21Z</time>
      </trkpt>
      <trkpt lat="44.13465" lon="0.57584">
        <ele>170</ele>
        <time>2007-04-12T10:52:21Z</time>
      </trkpt>
      <trkpt lat="44.13439" lon="0.57579">
        <ele>172</ele>
        <time>2007-04-12T10:52:21Z</time>
      </trkpt>
      <trkpt lat="44.134" lon="0.57563">
        <ele>172</ele>
        <time>2007-04-12T10:52:21Z</time>
      </trkpt>
      <trkpt lat="44.13375" lon="0.57545">
        <ele>173</ele>
        <time>2007-04-12T10:52:21Z</time>
      </trkpt>
      <trkpt lat="44.13356" lon="0.57532">
        <ele>173</ele>
        <time>2007-04-12T10:52:21Z</time>
      </trkpt>
      <trkpt lat="44.13346" lon="0.57501">
        <ele>173</ele>
        <time>2007-04-12T10:52:21Z</time>
      </trkpt>
      <trkpt lat="44.13326" lon="0.57522">
        <ele>174</ele>
        <time>2007-04-12T10:52:21Z</time>
      </trkpt>
      <trkpt lat="44.13306" lon="0.57536">
        <ele>174</ele>
        <time>2007-04-12T10:52:21Z</time>
      </trkpt>
      <trkpt lat="44.13294" lon="0.57543">
        <ele>175</ele>
        <time>2007-04-12T10:52:21Z</time>
      </trkpt>
      <trkpt lat="44.13277" lon="0.5754">
        <ele>175</ele>
        <time>2007-04-12T10:52:21Z</time>
      </trkpt>
      <trkpt lat="44.13259" lon="0.57536">
        <ele>174</ele>
        <time>2007-04-12T10:52:21Z</time>
      </trkpt>
      <trkpt lat="44.13239" lon="0.57543">
        <ele>174</ele>
        <time>2007-04-12T10:52:21Z</time>
      </trkpt>
      <trkpt lat="44.13212" lon="0.5757">
        <ele>171</ele>
        <time>2007-04-12T10:52:21Z</time>
      </trkpt>
      <trkpt lat="44.13169" lon="0.57605">
        <ele>165</ele>
        <time>2007-04-12T10:52:21Z</time>
      </trkpt>
      <trkpt lat="44.13136" lon="0.57627">
        <ele>160</ele>
        <time>2007-04-12T10:52:21Z</time>
      </trkpt>
      <trkpt lat="44.1311" lon="0.57645">
        <ele>156</ele>
        <time>2007-04-12T10:52:21Z</time>
      </trkpt>
      <trkpt lat="44.13093" lon="0.57657">
        <ele>154</ele>
        <time>2007-04-12T10:52:21Z</time>
      </trkpt>
      <trkpt lat="44.13083" lon="0.57677">
        <ele>153</ele>
        <time>2007-04-12T10:52:21Z</time>
      </trkpt>
      <trkpt lat="44.1307" lon="0.57715">
        <ele>150</ele>
        <time>2007-04-12T10:52:21Z</time>
      </trkpt>
      <trkpt lat="44.13055" lon="0.57749">
        <ele>148</ele>
        <time>2007-04-12T10:52:21Z</time>
      </trkpt>
      <trkpt lat="44.13038" lon="0.57788">
        <ele>145</ele>
        <time>2007-04-12T10:52:21Z</time>
      </trkpt>
      <trkpt lat="44.13024" lon="0.57823">
        <ele>143</ele>
        <time>2007-04-12T10:52:21Z</time>
      </trkpt>
      <trkpt lat="44.13013" lon="0.57858">
        <ele>141</ele>
        <time>2007-04-12T10:52:21Z</time>
      </trkpt>
      <trkpt lat="44.12967" lon="0.57834">
        <ele>139</ele>
        <time>2007-04-12T10:52:21Z</time>
      </trkpt>
      <trkpt lat="44.12948" lon="0.57821">
        <ele>141</ele>
        <time>2007-04-12T10:52:21Z</time>
      </trkpt>
      <trkpt lat="44.1293" lon="0.57799">
        <ele>142</ele>
        <time>2007-04-12T10:52:21Z</time>
      </trkpt>
      <trkpt lat="44.12855" lon="0.57767">
        <ele>138</ele>
        <time>2007-04-12T10:52:21Z</time>
      </trkpt>
      <trkpt lat="44.12847" lon="0.57772">
        <ele>137</ele>
        <time>2007-04-12T10:52:21Z</time>
      </trkpt>
      <trkpt lat="44.12835" lon="0.57799">
        <ele>135</ele>
        <time>2007-04-12T10:52:21Z</time>
      </trkpt>
      <trkpt lat="44.12801" lon="0.57886">
        <ele>129</ele>
        <time>2007-04-12T10:52:21Z</time>
      </trkpt>
      <trkpt lat="44.12782" lon="0.57972">
        <ele>125</ele>
        <time>2007-04-12T10:52:21Z</time>
      </trkpt>
      <trkpt lat="44.1277" lon="0.58017">
        <ele>122</ele>
        <time>2007-04-12T10:52:21Z</time>
      </trkpt>
      <trkpt lat="44.12751" lon="0.58034">
        <ele>119</ele>
        <time>2007-04-12T10:52:21Z</time>
      </trkpt>
      <trkpt lat="44.12723" lon="0.58057">
        <ele>117</ele>
        <time>2007-04-12T10:52:21Z</time>
      </trkpt>
      <trkpt lat="44.127" lon="0.58078">
        <ele>115</ele>
        <time>2007-04-12T10:52:21Z</time>
      </trkpt>
      <trkpt lat="44.12679" lon="0.58107">
        <ele>114</ele>
        <time>2007-04-12T10:52:21Z</time>
      </trkpt>
      <trkpt lat="44.12661" lon="0.58145">
        <ele>113</ele>
        <time>2007-04-12T10:52:21Z</time>
      </trkpt>
      <trkpt lat="44.12643" lon="0.58189">
        <ele>111</ele>
        <time>2007-04-12T10:52:21Z</time>
      </trkpt>
      <trkpt lat="44.12626" lon="0.58233">
        <ele>108</ele>
        <time>2007-04-12T10:52:21Z</time>
      </trkpt>
      <trkpt lat="44.12608" lon="0.58274">
        <ele>105</ele>
        <time>2007-04-12T10:52:21Z</time>
      </trkpt>
      <trkpt lat="44.12594" lon="0.58309">
        <ele>103</ele>
        <time>2007-04-12T10:52:21Z</time>
      </trkpt>
      <trkpt lat="44.12589" lon="0.58328">
        <ele>102</ele>
        <time>2007-04-12T10:52:21Z</time>
      </trkpt>
      <trkpt lat="44.12578" lon="0.58338">
        <ele>102</ele>
        <time>2007-04-12T10:52:21Z</time>
      </trkpt>
      <trkpt lat="44.12554" lon="0.58312">
        <ele>101</ele>
        <time>2007-04-12T10:52:21Z</time>
      </trkpt>
      <trkpt lat="44.12533" lon="0.58285">
        <ele>102</ele>
        <time>2007-04-12T10:52:21Z</time>
      </trkpt>
      <trkpt lat="44.12513" lon="0.58266">
        <ele>102</ele>
        <time>2007-04-12T10:52:21Z</time>
      </trkpt>
      <trkpt lat="44.12487" lon="0.58255">
        <ele>102</ele>
        <time>2007-04-12T10:52:21Z</time>
      </trkpt>
      <trkpt lat="44.12464" lon="0.5824">
        <ele>101</ele>
        <time>2007-04-12T10:52:21Z</time>
      </trkpt>
      <trkpt lat="44.1244" lon="0.58234">
        <ele>101</ele>
        <time>2007-04-12T10:52:21Z</time>
      </trkpt>
      <trkpt lat="44.12422" lon="0.58226">
        <ele>100</ele>
        <time>2007-04-12T10:52:21Z</time>
      </trkpt>
      <trkpt lat="44.12399" lon="0.58215">
        <ele>100</ele>
        <time>2007-04-12T10:52:21Z</time>
      </trkpt>
      <trkpt lat="44.12388" lon="0.58213">
        <ele>100</ele>
        <time>2007-04-12T10:52:21Z</time>
      </trkpt>
      <trkpt lat="44.1238" lon="0.58222">
        <ele>100</ele>
        <time>2007-04-12T10:52:21Z</time>
      </trkpt>
      <trkpt lat="44.12369" lon="0.58252">
        <ele>101</ele>
        <time>2007-04-12T10:52:21Z</time>
      </trkpt>
      <trkpt lat="44.12354" lon="0.58282">
        <ele>103</ele>
        <time>2007-04-12T10:52:21Z</time>
      </trkpt>
      <trkpt lat="44.12343" lon="0.58323">
        <ele>106</ele>
        <time>2007-04-12T10:52:21Z</time>
      </trkpt>
      <trkpt lat="44.12333" lon="0.58373">
        <ele>110</ele>
        <time>2007-04-12T10:52:21Z</time>
      </trkpt>
      <trkpt lat="44.12324" lon="0.58414">
        <ele>114</ele>
        <time>2007-04-12T10:52:21Z</time>
      </trkpt>
      <trkpt lat="44.12292" lon="0.58461">
        <ele>118</ele>
        <time>2007-04-12T10:52:21Z</time>
      </trkpt>
      <trkpt lat="44.12224" lon="0.58575">
        <ele>130</ele>
        <time>2007-04-12T10:52:21Z</time>
      </trkpt>
      <trkpt lat="44.12178" lon="0.58662">
        <ele>142</ele>
        <time>2007-04-12T10:52:21Z</time>
      </trkpt>
      <trkpt lat="44.1215" lon="0.58729">
        <ele>153</ele>
        <time>2007-04-12T10:52:21Z</time>
      </trkpt>
      <trkpt lat="44.12135" lon="0.58763">
        <ele>158</ele>
        <time>2007-04-12T10:52:21Z</time>
      </trkpt>
      <trkpt lat="44.12118" lon="0.58794">
        <ele>163</ele>
        <time>2007-04-12T10:52:21Z</time>
      </trkpt>
      <trkpt lat="44.12098" lon="0.58818">
        <ele>167</ele>
        <time>2007-04-12T10:52:21Z</time>
      </trkpt>
      <trkpt lat="44.12073" lon="0.58845">
        <ele>170</ele>
        <time>2007-04-12T10:52:21Z</time>
      </trkpt>
      <trkpt lat="44.12" lon="0.5891">
        <ele>172</ele>
        <time>2007-04-12T10:52:21Z</time>
      </trkpt>
      <trkpt lat="44.11988" lon="0.58874">
        <ele>171</ele>
        <time>2007-04-12T10:52:21Z</time>
      </trkpt>
      <trkpt lat="44.11976" lon="0.58845">
        <ele>170</ele>
        <time>2007-04-12T10:52:21Z</time>
      </trkpt>
      <trkpt lat="44.11948" lon="0.5881">
        <ele>170</ele>
        <time>2007-04-12T10:52:21Z</time>
      </trkpt>
      <trkpt lat="44.11922" lon="0.58786">
        <ele>170</ele>
        <time>2007-04-12T10:52:21Z</time>
      </trkpt>
      <trkpt lat="44.1192" lon="0.58745">
        <ele>171</ele>
        <time>2007-04-12T10:52:21Z</time>
      </trkpt>
      <trkpt lat="44.11911" lon="0.58711">
        <ele>171</ele>
        <time>2007-04-12T10:52:21Z</time>
      </trkpt>
      <trkpt lat="44.11892" lon="0.58659">
        <ele>168</ele>
        <time>2007-04-12T10:52:21Z</time>
      </trkpt>
      <trkpt lat="44.11874" lon="0.58598">
        <ele>163</ele>
        <time>2007-04-12T10:52:21Z</time>
      </trkpt>
      <trkpt lat="44.11862" lon="0.58535">
        <ele>155</ele>
        <time>2007-04-12T10:52:21Z</time>
      </trkpt>
      <trkpt lat="44.11845" lon="0.5849">
        <ele>150</ele>
        <time>2007-04-12T10:52:21Z</time>
      </trkpt>
      <trkpt lat="44.11836" lon="0.5845">
        <ele>145</ele>
        <time>2007-04-12T10:52:21Z</time>
      </trkpt>
      <trkpt lat="44.11829" lon="0.5842">
        <ele>142</ele>
        <time>2007-04-12T10:52:21Z</time>
      </trkpt>
      <trkpt lat="44.11826" lon="0.5835">
        <ele>135</ele>
        <time>2007-04-12T10:52:21Z</time>
      </trkpt>
      <trkpt lat="44.11823" lon="0.58189">
        <ele>122</ele>
        <time>2007-04-12T10:52:21Z</time>
      </trkpt>
      <trkpt lat="44.1197" lon="0.58102">
        <ele>114</ele>
        <time>2007-04-12T10:52:21Z</time>
      </trkpt>
      <trkpt lat="44.12032" lon="0.5806">
        <ele>109</ele>
        <time>2007-04-12T10:52:21Z</time>
      </trkpt>
      <trkpt lat="44.12059" lon="0.58035">
        <ele>105</ele>
        <time>2007-04-12T10:52:21Z</time>
      </trkpt>
      <trkpt lat="44.12079" lon="0.58008">
        <ele>103</ele>
        <time>2007-04-12T10:52:21Z</time>
      </trkpt>
      <trkpt lat="44.12042" lon="0.57966">
        <ele>103</ele>
        <time>2007-04-12T10:52:21Z</time>
      </trkpt>
      <trkpt lat="44.12017" lon="0.57949">
        <ele>104</ele>
        <time>2007-04-12T10:52:21Z</time>
      </trkpt>
      <trkpt lat="44.1199" lon="0.57928">
        <ele>105</ele>
        <time>2007-04-12T10:52:21Z</time>
      </trkpt>
      <trkpt lat="44.11958" lon="0.57914">
        <ele>106</ele>
        <time>2007-04-12T10:52:21Z</time>
      </trkpt>
      <trkpt lat="44.11936" lon="0.5789">
        <ele>106</ele>
        <time>2007-04-12T10:52:21Z</time>
      </trkpt>
      <trkpt lat="44.11918" lon="0.57876">
        <ele>106</ele>
        <time>2007-04-12T10:52:21Z</time>
      </trkpt>
      <trkpt lat="44.11899" lon="0.5787">
        <ele>107</ele>
        <time>2007-04-12T10:52:21Z</time>
      </trkpt>
      <trkpt lat="44.11877" lon="0.5786">
        <ele>107</ele>
        <time>2007-04-12T10:52:21Z</time>
      </trkpt>
      <trkpt lat="44.11852" lon="0.57848">
        <ele>108</ele>
        <time>2007-04-12T10:52:21Z</time>
      </trkpt>
      <trkpt lat="44.11816" lon="0.5785">
        <ele>111</ele>
        <time>2007-04-12T10:52:21Z</time>
      </trkpt>
      <trkpt lat="44.11793" lon="0.57864">
        <ele>115</ele>
        <time>2007-04-12T10:52:21Z</time>
      </trkpt>
      <trkpt lat="44.1175" lon="0.57881">
        <ele>121</ele>
        <time>2007-04-12T10:52:21Z</time>
      </trkpt>
      <trkpt lat="44.11748" lon="0.57836">
        <ele>120</ele>
        <time>2007-04-12T10:52:21Z</time>
      </trkpt>
      <trkpt lat="44.11731" lon="0.57731">
        <ele>114</ele>
        <time>2007-04-12T10:52:21Z</time>
      </trkpt>
      <trkpt lat="44.11696" lon="0.57643">
        <ele>110</ele>
        <time>2007-04-12T10:52:21Z</time>
      </trkpt>
      <trkpt lat="44.11684" lon="0.57601">
        <ele>109</ele>
        <time>2007-04-12T10:52:21Z</time>
      </trkpt>
      <trkpt lat="44.11667" lon="0.57569">
        <ele>108</ele>
        <time>2007-04-12T10:52:21Z</time>
      </trkpt>
      <trkpt lat="44.11644" lon="0.57537">
        <ele>109</ele>
        <time>2007-04-12T10:52:21Z</time>
      </trkpt>
      <trkpt lat="44.11622" lon="0.57501">
        <ele>109</ele>
        <time>2007-04-12T10:52:21Z</time>
      </trkpt>
      <trkpt lat="44.11589" lon="0.57443">
        <ele>109</ele>
        <time>2007-04-12T10:52:21Z</time>
      </trkpt>
      <trkpt lat="44.11593" lon="0.57421">
        <ele>109</ele>
        <time>2007-04-12T10:52:21Z</time>
      </trkpt>
      <trkpt lat="44.11593" lon="0.5739">
        <ele>108</ele>
        <time>2007-04-12T10:52:21Z</time>
      </trkpt>
      <trkpt lat="44.11593" lon="0.57337">
        <ele>110</ele>
        <time>2007-04-12T10:52:21Z</time>
      </trkpt>
      <trkpt lat="44.11598" lon="0.57287">
        <ele>112</ele>
        <time>2007-04-12T10:52:21Z</time>
      </trkpt>
      <trkpt lat="44.11598" lon="0.57242">
        <ele>115</ele>
        <time>2007-04-12T10:52:21Z</time>
      </trkpt>
      <trkpt lat="44.11597" lon="0.57221">
        <ele>115</ele>
        <time>2007-04-12T10:52:21Z</time>
      </trkpt>
      <trkpt lat="44.11584" lon="0.57186">
        <ele>116</ele>
        <time>2007-04-12T10:52:21Z</time>
      </trkpt>
      <trkpt lat="44.11566" lon="0.5715">
        <ele>115</ele>
        <time>2007-04-12T10:52:21Z</time>
      </trkpt>
      <trkpt lat="44.11557" lon="0.57124">
        <ele>115</ele>
        <time>2007-04-12T10:52:21Z</time>
      </trkpt>
      <trkpt lat="44.11564" lon="0.57015">
        <ele>120</ele>
        <time>2007-04-12T10:52:21Z</time>
      </trkpt>
      <trkpt lat="44.11567" lon="0.56951">
        <ele>122</ele>
        <time>2007-04-12T10:52:21Z</time>
      </trkpt>
      <trkpt lat="44.11576" lon="0.56847">
        <ele>126</ele>
        <time>2007-04-12T10:52:21Z</time>
      </trkpt>
      <trkpt lat="44.11581" lon="0.56796">
        <ele>129</ele>
        <time>2007-04-12T10:52:21Z</time>
      </trkpt>
      <trkpt lat="44.11583" lon="0.56725">
        <ele>134</ele>
        <time>2007-04-12T10:52:21Z</time>
      </trkpt>
      <trkpt lat="44.11593" lon="0.56678">
        <ele>138</ele>
        <time>2007-04-12T10:52:21Z</time>
      </trkpt>
      <trkpt lat="44.11607" lon="0.56636">
        <ele>141</ele>
        <time>2007-04-12T10:52:21Z</time>
      </trkpt>
      <trkpt lat="44.11583" lon="0.56516">
        <ele>148</ele>
        <time>2007-04-12T10:52:21Z</time>
      </trkpt>
      <trkpt lat="44.11568" lon="0.5642">
        <ele>156</ele>
        <time>2007-04-12T10:52:21Z</time>
      </trkpt>
      <trkpt lat="44.11555" lon="0.56285">
        <ele>163</ele>
        <time>2007-04-12T10:52:21Z</time>
      </trkpt>
      <trkpt lat="44.11548" lon="0.56212">
        <ele>164</ele>
        <time>2007-04-12T10:52:21Z</time>
      </trkpt>
      <trkpt lat="44.11556" lon="0.56205">
        <ele>164</ele>
        <time>2007-04-12T10:52:21Z</time>
      </trkpt>
      <trkpt lat="44.11718" lon="0.55988">
        <ele>148</ele>
        <time>2007-04-12T10:52:21Z</time>
      </trkpt>
      <trkpt lat="44.1178" lon="0.55923">
        <ele>143</ele>
        <time>2007-04-12T10:52:21Z</time>
      </trkpt>
      <trkpt lat="44.11863" lon="0.55812">
        <ele>136</ele>
        <time>2007-04-12T10:52:21Z</time>
      </trkpt>
      <trkpt lat="44.119" lon="0.55857">
        <ele>141</ele>
        <time>2007-04-12T10:52:21Z</time>
      </trkpt>
      <trkpt lat="44.11965" lon="0.55701">
        <ele>130</ele>
        <time>2007-04-12T10:52:21Z</time>
      </trkpt>
      <trkpt lat="44.11965" lon="0.55637">
        <ele>135</ele>
        <time>2007-04-12T10:52:21Z</time>
      </trkpt>
      <trkpt lat="44.11966" lon="0.55596">
        <ele>139</ele>
        <time>2007-04-12T10:52:21Z</time>
      </trkpt>
      <trkpt lat="44.11971" lon="0.5556">
        <ele>143</ele>
        <time>2007-04-12T10:52:21Z</time>
      </trkpt>
      <trkpt lat="44.11981" lon="0.5551">
        <ele>147</ele>
        <time>2007-04-12T10:52:21Z</time>
      </trkpt>
      <trkpt lat="44.12004" lon="0.55444">
        <ele>149</ele>
        <time>2007-04-12T10:52:21Z</time>
      </trkpt>
      <trkpt lat="44.12064" lon="0.55262">
        <ele>146</ele>
        <time>2007-04-12T10:52:21Z</time>
      </trkpt>
      <trkpt lat="44.12134" lon="0.55104">
        <ele>140</ele>
        <time>2007-04-12T10:52:21Z</time>
      </trkpt>
      <trkpt lat="44.12164" lon="0.55047">
        <ele>136</ele>
        <time>2007-04-12T10:52:21Z</time>
      </trkpt>
      <trkpt lat="44.1218" lon="0.5502">
        <ele>135</ele>
        <time>2007-04-12T10:52:21Z</time>
      </trkpt>
      <trkpt lat="44.12211" lon="0.54974">
        <ele>132</ele>
        <time>2007-04-12T10:52:21Z</time>
      </trkpt>
      <trkpt lat="44.12247" lon="0.54933">
        <ele>130</ele>
        <time>2007-04-12T10:52:21Z</time>
      </trkpt>
      <trkpt lat="44.12266" lon="0.54889">
        <ele>126</ele>
        <time>2007-04-12T10:52:21Z</time>
      </trkpt>
      <trkpt lat="44.12279" lon="0.54836">
        <ele>127</ele>
        <time>2007-04-12T10:52:21Z</time>
      </trkpt>
      <trkpt lat="44.12288" lon="0.54789">
        <ele>131</ele>
        <time>2007-04-12T10:52:21Z</time>
      </trkpt>
      <trkpt lat="44.12295" lon="0.54707">
        <ele>138</ele>
        <time>2007-04-12T10:52:21Z</time>
      </trkpt>
      <trkpt lat="44.12308" lon="0.54618">
        <ele>144</ele>
        <time>2007-04-12T10:52:21Z</time>
      </trkpt>
      <trkpt lat="44.12327" lon="0.5452">
        <ele>149</ele>
        <time>2007-04-12T10:52:21Z</time>
      </trkpt>
      <trkpt lat="44.12345" lon="0.54464">
        <ele>151</ele>
        <time>2007-04-12T10:52:21Z</time>
      </trkpt>
      <trkpt lat="44.12358" lon="0.54435">
        <ele>152</ele>
        <time>2007-04-12T10:52:21Z</time>
      </trkpt>
      <trkpt lat="44.12381" lon="0.54411">
        <ele>152</ele>
        <time>2007-04-12T10:52:21Z</time>
      </trkpt>
      <trkpt lat="44.12428" lon="0.54366">
        <ele>153</ele>
        <time>2007-04-12T10:52:21Z</time>
      </trkpt>
      <trkpt lat="44.12457" lon="0.5434">
        <ele>152</ele>
        <time>2007-04-12T10:52:21Z</time>
      </trkpt>
      <trkpt lat="44.12476" lon="0.54319">
        <ele>152</ele>
        <time>2007-04-12T10:52:21Z</time>
      </trkpt>
      <trkpt lat="44.1249" lon="0.54292">
        <ele>151</ele>
        <time>2007-04-12T10:52:21Z</time>
      </trkpt>
      <trkpt lat="44.12499" lon="0.54264">
        <ele>150</ele>
        <time>2007-04-12T10:52:21Z</time>
      </trkpt>
      <trkpt lat="44.12538" lon="0.54275">
        <ele>147</ele>
        <time>2007-04-12T10:52:21Z</time>
      </trkpt>
      <trkpt lat="44.12587" lon="0.54177">
        <ele>148</ele>
        <time>2007-04-12T10:52:21Z</time>
      </trkpt>
      <trkpt lat="44.12628" lon="0.54197">
        <ele>145</ele>
        <time>2007-04-12T10:52:21Z</time>
      </trkpt>
      <trkpt lat="44.12657" lon="0.54125">
        <ele>149</ele>
        <time>2007-04-12T10:52:21Z</time>
      </trkpt>
      <trkpt lat="44.12665" lon="0.54095">
        <ele>150</ele>
        <time>2007-04-12T10:52:21Z</time>
      </trkpt>
      <trkpt lat="44.12675" lon="0.54066">
        <ele>150</ele>
        <time>2007-04-12T10:52:21Z</time>
      </trkpt>
      <trkpt lat="44.12754" lon="0.53595">
        <ele>133</ele>
        <time>2007-04-12T10:52:21Z</time>
      </trkpt>
      <trkpt lat="44.12779" lon="0.53543">
        <ele>131</ele>
        <time>2007-04-12T10:52:21Z</time>
      </trkpt>
      <trkpt lat="44.12796" lon="0.53519">
        <ele>130</ele>
        <time>2007-04-12T10:52:21Z</time>
      </trkpt>
      <trkpt lat="44.12805" lon="0.53485">
        <ele>127</ele>
        <time>2007-04-12T10:52:21Z</time>
      </trkpt>
      <trkpt lat="44.12838" lon="0.53327">
        <ele>119</ele>
        <time>2007-04-12T10:52:21Z</time>
      </trkpt>
      <trkpt lat="44.13137" lon="0.53251">
        <ele>126</ele>
        <time>2007-04-12T10:52:21Z</time>
      </trkpt>
      <trkpt lat="44.13184" lon="0.53249">
        <ele>127</ele>
        <time>2007-04-12T10:52:21Z</time>
      </trkpt>
      <trkpt lat="44.13223" lon="0.53278">
        <ele>130</ele>
        <time>2007-04-12T10:52:21Z</time>
      </trkpt>
      <trkpt lat="44.13304" lon="0.53339">
        <ele>133</ele>
        <time>2007-04-12T10:52:21Z</time>
      </trkpt>
      <trkpt lat="44.13355" lon="0.53358">
        <ele>134</ele>
        <time>2007-04-12T10:52:21Z</time>
      </trkpt>
      <trkpt lat="44.13418" lon="0.5337">
        <ele>136</ele>
        <time>2007-04-12T10:52:21Z</time>
      </trkpt>
      <trkpt lat="44.13453" lon="0.5337">
        <ele>136</ele>
        <time>2007-04-12T10:52:21Z</time>
      </trkpt>
      <trkpt lat="44.13491" lon="0.53366">
        <ele>137</ele>
        <time>2007-04-12T10:52:21Z</time>
      </trkpt>
      <trkpt lat="44.13541" lon="0.53352">
        <ele>140</ele>
        <time>2007-04-12T10:52:21Z</time>
      </trkpt>
      <trkpt lat="44.13589" lon="0.53319">
        <ele>144</ele>
        <time>2007-04-12T10:52:21Z</time>
      </trkpt>
      <trkpt lat="44.13613" lon="0.53323">
        <ele>146</ele>
        <time>2007-04-12T10:52:21Z</time>
      </trkpt>
      <trkpt lat="44.13646" lon="0.53327">
        <ele>148</ele>
        <time>2007-04-12T10:52:21Z</time>
      </trkpt>
      <trkpt lat="44.13653" lon="0.53364">
        <ele>148</ele>
        <time>2007-04-12T10:52:21Z</time>
      </trkpt>
      <trkpt lat="44.13676" lon="0.53426">
        <ele>150</ele>
        <time>2007-04-12T10:52:21Z</time>
      </trkpt>
      <trkpt lat="44.13691" lon="0.53452">
        <ele>151</ele>
        <time>2007-04-12T10:52:21Z</time>
      </trkpt>
      <trkpt lat="44.13708" lon="0.53478">
        <ele>153</ele>
        <time>2007-04-12T10:52:21Z</time>
      </trkpt>
      <trkpt lat="44.1374" lon="0.53511">
        <ele>155</ele>
        <time>2007-04-12T10:52:21Z</time>
      </trkpt>
      <trkpt lat="44.1377" lon="0.53552">
        <ele>157</ele>
        <time>2007-04-12T10:52:21Z</time>
      </trkpt>
      <trkpt lat="44.13796" lon="0.53592">
        <ele>160</ele>
        <time>2007-04-12T10:52:21Z</time>
      </trkpt>
      <trkpt lat="44.13773" lon="0.53607">
        <ele>159</ele>
        <time>2007-04-12T10:52:21Z</time>
      </trkpt>
      <trkpt lat="44.13744" lon="0.53634">
        <ele>156</ele>
        <time>2007-04-12T10:52:21Z</time>
      </trkpt>
      <trkpt lat="44.13726" lon="0.53663">
        <ele>153</ele>
        <time>2007-04-12T10:52:21Z</time>
      </trkpt>
      <trkpt lat="44.13711" lon="0.53696">
        <ele>150</ele>
        <time>2007-04-12T10:52:21Z</time>
      </trkpt>
      <trkpt lat="44.13701" lon="0.5372">
        <ele>147</ele>
        <time>2007-04-12T10:52:21Z</time>
      </trkpt>
      <trkpt lat="44.13695" lon="0.53748">
        <ele>144</ele>
        <time>2007-04-12T10:52:21Z</time>
      </trkpt>
      <trkpt lat="44.13688" lon="0.53764">
        <ele>142</ele>
        <time>2007-04-12T10:52:21Z</time>
      </trkpt>
      <trkpt lat="44.13685" lon="0.53789">
        <ele>139</ele>
        <time>2007-04-12T10:52:21Z</time>
      </trkpt>
      <trkpt lat="44.1369" lon="0.53826">
        <ele>136</ele>
        <time>2007-04-12T10:52:21Z</time>
      </trkpt>
      <trkpt lat="44.13696" lon="0.53875">
        <ele>132</ele>
        <time>2007-04-12T10:52:21Z</time>
      </trkpt>
      <trkpt lat="44.13695" lon="0.53906">
        <ele>129</ele>
        <time>2007-04-12T10:52:21Z</time>
      </trkpt>
      <trkpt lat="44.1369" lon="0.53945">
        <ele>126</ele>
        <time>2007-04-12T10:52:21Z</time>
      </trkpt>
      <trkpt lat="44.13681" lon="0.53994">
        <ele>122</ele>
        <time>2007-04-12T10:52:21Z</time>
      </trkpt>
      <trkpt lat="44.13684" lon="0.54012">
        <ele>121</ele>
        <time>2007-04-12T10:52:21Z</time>
      </trkpt>
      <trkpt lat="44.1369" lon="0.54053">
        <ele>119</ele>
        <time>2007-04-12T10:52:21Z</time>
      </trkpt>
      <trkpt lat="44.13702" lon="0.54129">
        <ele>116</ele>
        <time>2007-04-12T10:52:21Z</time>
      </trkpt>
      <trkpt lat="44.13708" lon="0.5419">
        <ele>115</ele>
        <time>2007-04-12T10:52:21Z</time>
      </trkpt>
      <trkpt lat="44.13705" lon="0.54235">
        <ele>111</ele>
        <time>2007-04-12T10:52:21Z</time>
      </trkpt>
      <trkpt lat="44.13697" lon="0.54262">
        <ele>109</ele>
        <time>2007-04-12T10:52:21Z</time>
      </trkpt>
      <trkpt lat="44.13667" lon="0.54288">
        <ele>105</ele>
        <time>2007-04-12T10:52:21Z</time>
      </trkpt>
      <trkpt lat="44.13635" lon="0.5432">
        <ele>102</ele>
        <time>2007-04-12T10:52:21Z</time>
      </trkpt>
      <trkpt lat="44.13671" lon="0.54395">
        <ele>102</ele>
        <time>2007-04-12T10:52:21Z</time>
      </trkpt>
      <trkpt lat="44.13703" lon="0.54463">
        <ele>101</ele>
        <time>2007-04-12T10:52:21Z</time>
      </trkpt>
      <trkpt lat="44.13722" lon="0.54504">
        <ele>100</ele>
        <time>2007-04-12T10:52:21Z</time>
      </trkpt>
      <trkpt lat="44.13716" lon="0.54528">
        <ele>100</ele>
        <time>2007-04-12T10:52:21Z</time>
      </trkpt>
      <trkpt lat="44.13741" lon="0.54583">
        <ele>101</ele>
        <time>2007-04-12T10:52:21Z</time>
      </trkpt>
      <trkpt lat="44.13756" lon="0.54628">
        <ele>100</ele>
        <time>2007-04-12T10:52:21Z</time>
      </trkpt>
      <trkpt lat="44.13774" lon="0.54678">
        <ele>100</ele>
        <time>2007-04-12T10:52:21Z</time>
      </trkpt>
      <trkpt lat="44.13797" lon="0.54752">
        <ele>99</ele>
        <time>2007-04-12T10:52:21Z</time>
      </trkpt>
      <trkpt lat="44.13721" lon="0.54809">
        <ele>106</ele>
        <time>2007-04-12T10:52:21Z</time>
      </trkpt>
      <trkpt lat="44.13727" lon="0.54843">
        <ele>106</ele>
        <time>2007-04-12T10:52:21Z</time>
      </trkpt>
      <trkpt lat="44.13777" lon="0.54999">
        <ele>104</ele>
        <time>2007-04-12T10:52:21Z</time>
      </trkpt>
      <trkpt lat="44.13841" lon="0.55189">
        <ele>99</ele>
        <time>2007-04-12T10:52:21Z</time>
      </trkpt>
      <trkpt lat="44.13868" lon="0.55279">
        <ele>98</ele>
        <time>2007-04-12T10:52:21Z</time>
      </trkpt>
      <trkpt lat="44.13899" lon="0.55353">
        <ele>95</ele>
        <time>2007-04-12T10:52:21Z</time>
      </trkpt>
      <trkpt lat="44.13926" lon="0.55463">
        <ele>94</ele>
        <time>2007-04-12T10:52:21Z</time>
      </trkpt>
      <trkpt lat="44.1393" lon="0.55567">
        <ele>94</ele>
        <time>2007-04-12T10:52:21Z</time>
      </trkpt>
      <trkpt lat="44.13937" lon="0.55634">
        <ele>91</ele>
        <time>2007-04-12T10:52:21Z</time>
      </trkpt>
      <trkpt lat="44.13943" lon="0.55673">
        <ele>89</ele>
        <time>2007-04-12T10:52:21Z</time>
      </trkpt>
      <trkpt lat="44.13943" lon="0.5569">
        <ele>89</ele>
        <time>2007-04-12T10:52:21Z</time>
      </trkpt>
      <trkpt lat="44.13939" lon="0.55707">
        <ele>89</ele>
        <time>2007-04-12T10:52:21Z</time>
      </trkpt>
      <trkpt lat="44.13952" lon="0.55716">
        <ele>89</ele>
        <time>2007-04-12T10:52:21Z</time>
      </trkpt>
      <trkpt lat="44.13977" lon="0.55723">
        <ele>89</ele>
        <time>2007-04-12T10:52:21Z</time>
      </trkpt>
      <trkpt lat="44.13998" lon="0.55735">
        <ele>88</ele>
        <time>2007-04-12T10:52:21Z</time>
      </trkpt>
      <trkpt lat="44.14013" lon="0.55763">
        <ele>88</ele>
        <time>2007-04-12T10:52:21Z</time>
      </trkpt>
      <trkpt lat="44.14027" lon="0.55817">
        <ele>89</ele>
        <time>2007-04-12T10:52:21Z</time>
      </trkpt>
      <trkpt lat="44.14044" lon="0.55884">
        <ele>94</ele>
        <time>2007-04-12T10:52:21Z</time>
      </trkpt>
      <trkpt lat="44.14054" lon="0.5594">
        <ele>101</ele>
        <time>2007-04-12T10:52:21Z</time>
      </trkpt>
      <trkpt lat="44.14081" lon="0.55936">
        <ele>100</ele>
        <time>2007-04-12T10:52:21Z</time>
      </trkpt>
      <trkpt lat="44.14119" lon="0.55916">
        <ele>96</ele>
        <time>2007-04-12T10:52:21Z</time>
      </trkpt>
      <trkpt lat="44.14137" lon="0.55931">
        <ele>97</ele>
        <time>2007-04-12T10:52:21Z</time>
      </trkpt>
      <trkpt lat="44.14181" lon="0.55954">
        <ele>97</ele>
        <time>2007-04-12T10:52:21Z</time>
      </trkpt>
      <trkpt lat="44.14207" lon="0.55969">
        <ele>97</ele>
        <time>2007-04-12T10:52:21Z</time>
      </trkpt>
      <trkpt lat="44.1423" lon="0.5599">
        <ele>99</ele>
        <time>2007-04-12T10:52:21Z</time>
      </trkpt>
      <trkpt lat="44.14223" lon="0.56039">
        <ele>102</ele>
        <time>2007-04-12T10:52:21Z</time>
      </trkpt>
    </trkseg>
  </trk>
</gpx>